sat.trackr.live / text

‹ back to catalog

STARLINK-3798

NORAD 52371 · 2022-045AS

PAYLOAD ACTIVE UNKNOWN

§ Identity

Operator
Country
US
Launch date
2022-04-29
Launch site
AFETR
Launch vehicle
Mass (kg)
RCS (m²)

Purposes: comms

External: N2YO · Heavens-Above · Gunter

§ Orbital elements

Epoch: 2026-05-24T21:04:14.708928Z

Period
95.44 min
Inclination
53.2123°
Eccentricity
0.0001503
Mean motion
15.08815736 rev/d
Perigee alt
538.8 km
Apogee alt
540.9 km
Semi-major
6,918.0 km
B*
1.5698e-4
RAAN
207.1094°
Arg perigee
95.8388°
Mean anomaly
264.2775°
Rev number
22,741

§ Raw data

STARLINK-37981 52371U 22045AS  26144.87794802  .00002210  00000+0  15698-3 0  99992 52371  53.2123 207.1094 0001503  95.8388 264.2775 15.08815736227412

JSON: /api/v1/satellites/52371 · /tle

For live sub-satellite position, see the globe view (requires WebGL).

§ Visibility from observer

Set your observer location to see the next 7 days of passes ≥ 10°. The values pass through the URL so the page stays shareable.

No JS? Fill the form by hand. The geolocation button needs JavaScript.